Location: Bonningues
(50.7927°N, 2.0150°E)
Time: 04:46:50
(UTC+00:00)

Cosmos 1500 Rocket - Pass Details

Date: 08 August 2020
Orbit: 604 x 630 km, 82.5° (Epoch: 19 September)

Event Time Altitude Azimuth Distance (km) Brightness Sun altitude
Rises 20:08:59 0° 196° (SSW) 2,848 6.8 -6.8°
Reaches altitude 10° 20:11:12 10° 199° (SSW) 1,949 6.0 -7.1°
Maximum altitude 20:15:29 66° 282° (WNW) 664 4.0 -7.7°
Drops below altitude 10° 20:19:49 10° 5° (N) 1,970 6.6 -8.2°
Sets 20:22:04 0° 9° (N) 2,882 7.4 -8.5°
